| time (UTC) | temp F | wind direction | speed MPH | gust MPH | rain 1hr in | rain 24hr in | rain mn in | humidity % | barometer mb |
| 20260507164524 | 71 | 181 | 0.0 | 0.0 | 0.00 | 0.04 | 0.04 | 91 | 1013.5 |
| 20260507163023 | 70 | 146 | 0.0 | 0.0 | 0.00 | 0.04 | 0.04 | 92 | 1013.7 |
| 20260507161524 | 70 | 82 | 0.0 | 0.0 | 0.00 | 0.04 | 0.04 | 92 | 1013.8 |
| 20260507154523 | 69 | 228 | 0.0 | 0.0 | 0.00 | 0.04 | 0.04 | 93 | 1013.4 |
| 20260507153023 | 68 | 163 | 0.0 | 0.0 | 0.00 | 0.04 | 0.04 | 93 | 1013.4 |
| 20260507151523 | 68 | 165 | 0.0 | 0.0 | 0.00 | 0.04 | 0.04 | 93 | 1013.4 |
| 20260507144523 | 68 | 71 | 0.0 | 0.0 | 0.00 | 0.04 | 0.04 | 92 | 1013.5 |
| 20260507143022 | 69 | 169 | 0.0 | 0.0 | 0.00 | 0.04 | 0.04 | 93 | 1013.4 |
| 20260507141522 | 69 | 169 | 0.0 | 0.0 | 0.00 | 0.04 | 0.04 | 92 | 1013.5 |
| 20260507140022 | 70 | 206 | 0.0 | 0.0 | 0.00 | 0.04 | 0.04 | 93 | 1013.2 |
| 20260507134521 | 70 | 206 | 0.0 | 0.0 | 0.01 | 0.04 | 0.04 | 92 | 1013.0 |
| 20260507133021 | 70 | 206 | 0.0 | 0.0 | 0.01 | 0.04 | 0.04 | 92 | 1012.9 |
| 20260507131521 | 71 | 205 | 0.0 | 0.0 | 0.02 | 0.04 | 0.04 | 92 | 1012.7 |
| 20260507130021 | 71 | 207 | 0.0 | 0.0 | 0.02 | 0.04 | 0.04 | 92 | 1012.7 |
| 20260507123020 | 72 | 254 | 0.0 | 0.0 | 0.02 | 0.03 | 0.03 | 92 | 1012.2 |
| 20260507121520 | 73 | 254 | 0.0 | 0.0 | 0.01 | 0.02 | 0.02 | 92 | 1011.9 |
| 20260507120020 | 74 | 232 | 0.0 | 0.0 | 0.01 | 0.02 | 0.02 | 92 | 1011.6 |
| 20260507114520 | 74 | 232 | 0.0 | 0.0 | 0.01 | 0.02 | 0.02 | 91 | 1011.0 |
| 20260507113020 | 75 | 232 | 0.0 | 0.0 | 0.01 | 0.01 | 0.01 | 91 | 1010.9 |
| 20260507104519 | 78 | 243 | 0.0 | 0.0 | 0.01 | 0.01 | 0.01 | 92 | 1010.4 |
| 20260507103019 | 78 | 243 | 0.0 | 0.0 | 0.00 | 0.00 | 0.00 | 92 | 1010.0 |
| 20260507100018 | 78 | 181 | 0.0 | 0.0 | 0.00 | 0.00 | 0.00 | 92 | 1009.8 |
| 20260507094518 | 78 | 123 | 0.0 | 0.0 | 0.00 | 0.00 | 0.00 | 92 | 1009.7 |
| 20260507093019 | 78 | 332 | 2.0 | 0.0 | 0.00 | 0.00 | 0.00 | 92 | 1009.6 |
| 20260507090018 | 78 | 212 | 0.0 | 0.0 | 0.00 | 0.00 | 0.00 | 92 | 1009.6 |
| 20260507084517 | 78 | 287 | 0.0 | 0.0 | 0.00 | 0.00 | 0.00 | 92 | 1009.6 |
| 20260507083018 | 78 | 182 | 1.0 | 0.0 | 0.00 | 0.00 | 0.00 | 92 | 1009.6 |
| 20260507081517 | 78 | 191 | 0.0 | 0.0 | 0.00 | 0.00 | 0.00 | 92 | 1009.5 |
| 20260507080017 | 78 | 285 | 2.0 | 0.0 | 0.00 | 0.00 | 0.00 | 92 | 1009.5 |
| 20260507074517 | 78 | 286 | 0.0 | 0.0 | 0.00 | 0.00 | 0.00 | 92 | 1009.6 |
| 20260507073017 | 78 | 101 | 0.0 | 0.0 | 0.00 | 0.00 | 0.00 | 92 | 1009.8 |
| 20260507071516 | 78 | 169 | 1.0 | 0.0 | 0.00 | 0.00 | 0.00 | 91 | 1009.9 |
| 20260507070017 | 78 | 284 | 2.0 | 0.0 | 0.00 | 0.00 | 0.00 | 91 | 1010.2 |
| 20260507064516 | 78 | 151 | 0.0 | 0.0 | 0.00 | 0.00 | 0.00 | 91 | 1010.2 |
| 20260507063016 | 79 | 136 | 0.0 | 0.0 | 0.00 | 0.00 | 0.00 | 91 | 1010.3 |
| 20260507061515 | 79 | 309 | 0.0 | 0.0 | 0.00 | 0.00 | 0.00 | 91 | 1010.4 |
| 20260507060015 | 79 | 311 | 0.0 | 0.0 | 0.00 | 0.00 | 0.00 | 91 | 1010.4 |
| 20260507054515 | 79 | 185 | 0.0 | 0.0 | 0.00 | 0.00 | 0.00 | 91 | 1010.3 |
| 20260507053015 | 79 | 289 | 0.0 | 0.0 | 0.00 | 0.00 | 0.00 | 91 | 1010.3 |
| 20260507051516 | 79 | 288 | 1.0 | 0.0 | 0.00 | 0.00 | 0.00 | 91 | 1010.4 |
| 20260507050044 | 79 | 125 | 0.0 | 0.0 | 0.00 | 0.00 | 0.00 | 91 | 1010.3 |
| 20260507044544 | 79 | 245 | 2.0 | 0.0 | 0.00 | 0.00 | 0.00 | 91 | 1010.2 |
| 20260507043014 | 79 | 228 | 1.0 | 0.0 | 0.00 | 0.00 | 0.00 | 91 | 1010.0 |
| 20260507041514 | 79 | 295 | 3.0 | 0.0 | 0.00 | 0.00 | 0.00 | 91 | 1009.6 |
| 20260507040044 | 79 | 181 | 0.0 | 0.0 | 0.00 | 0.00 | 0.00 | 91 | 1009.5 |
| 20260507033043 | 79 | 112 | 1.0 | 0.0 | 0.00 | 0.00 | 0.00 | 90 | 1009.6 |
| 20260507031513 | 79 | 134 | 0.0 | 0.0 | 0.00 | 0.00 | 0.00 | 90 | 1009.8 |
| 20260507030043 | 79 | 139 | 1.0 | 0.0 | 0.00 | 0.00 | 0.00 | 90 | 1009.7 |
| 20260507024543 | 80 | 116 | 2.0 | 0.0 | 0.00 | 0.00 | 0.00 | 90 | 1010.0 |
| 20260507023043 | 80 | 296 | 1.0 | 0.0 | 0.00 | 0.00 | 0.00 | 90 | 1010.3 |
| 20260507020042 | 80 | 110 | 1.0 | 0.0 | 0.00 | 0.00 | 0.00 | 89 | 1010.2 |
| 20260507014542 | 80 | 207 | 0.0 | 0.0 | 0.00 | 0.00 | 0.00 | 89 | 1009.9 |
| 20260507013042 | 80 | 171 | 1.0 | 0.0 | 0.00 | 0.00 | 0.00 | 88 | 1009.7 |
| 20260507011541 | 81 | 56 | 1.0 | 0.0 | 0.00 | 0.00 | 0.00 | 88 | 1009.7 |
| 20260507010041 | 81 | 140 | 2.0 | 0.0 | 0.00 | 0.00 | 0.00 | 87 | 1009.7 |
| 20260507004541 | 81 | 138 | 1.0 | 0.0 | 0.00 | 0.00 | 0.00 | 87 | 1009.6 |
| 20260507003048 | 82 | 177 | 0.0 | 0.0 | 0.00 | 0.00 | 0.00 | 86 | 1009.1 |
| 20260507001510 | 82 | 262 | 0.0 | 0.0 | 0.00 | 0.00 | 0.00 | 85 | 1008.8 |
| 20260507000041 | 82 | 234 | 1.0 | 0.0 | 0.00 | 0.00 | 0.00 | 85 | 1008.9 |
| 20260506234540 | 82 | 140 | 3.0 | 0.0 | 0.00 | 0.00 | 0.00 | 84 | 1009.1 |
| 20260506231540 | 83 | 104 | 0.0 | 0.0 | 0.00 | 0.00 | 0.00 | 83 | 1008.9 |
| 20260506223039 | 84 | 52 | 0.0 | 0.0 | 0.00 | 0.00 | 0.00 | 82 | 1008.7 |
| 20260506221539 | 85 | 34 | 0.0 | 0.0 | 0.00 | 0.00 | 0.00 | 82 | 1008.8 |
| 20260506220039 | 85 | 72 | 2.0 | 0.0 | 0.00 | 0.00 | 0.00 | 81 | 1009.3 |
| 20260506214539 | 86 | 134 | 2.0 | 0.0 | 0.00 | 0.00 | 0.00 | 80 | 1009.6 |
| 20260506213038 | 86 | 173 | 1.0 | 0.0 | 0.00 | 0.00 | 0.00 | 80 | 1009.6 |
| 20260506211545 | 86 | 5 | 2.0 | 0.0 | 0.00 | 0.00 | 0.00 | 79 | 1009.9 |
| 20260506210038 | 86 | 191 | 2.0 | 0.0 | 0.00 | 0.00 | 0.00 | 79 | 1009.9 |
| 20260506204538 | 86 | 184 | 6.0 | 0.0 | 0.00 | 0.00 | 0.00 | 79 | 1009.8 |
| 20260506203037 | 86 | 254 | 2.0 | 0.0 | 0.00 | 0.00 | 0.00 | 80 | 1010.0 |
| 20260506201538 | 86 | 132 | 2.0 | 0.0 | 0.00 | 0.00 | 0.00 | 79 | 1010.2 |
| 20260506200037 | 86 | 23 | 1.0 | 0.0 | 0.00 | 0.00 | 0.00 | 82 | 1010.4 |
| 20260506194537 | 85 | 5 | 0.0 | 0.0 | 0.00 | 0.00 | 0.00 | 83 | 1010.8 |
| 20260506193037 | 85 | 54 | 3.0 | 0.0 | 0.00 | 0.00 | 0.00 | 83 | 1011.2 |
| 20260506191537 | 85 | 169 | 4.0 | 0.0 | 0.00 | 0.00 | 0.00 | 84 | 1011.3 |
| 20260506190037 | 84 | 312 | 2.0 | 0.0 | 0.00 | 0.00 | 0.00 | 85 | 1011.5 |
| 20260506184536 | 84 | 167 | 3.0 | 0.0 | 0.00 | 0.00 | 0.00 | 85 | 1011.8 |
| 20260506183036 | 83 | 232 | 1.0 | 0.0 | 0.00 | 0.00 | 0.00 | 87 | 1012.0 |
| 20260506181536 | 83 | 71 | 2.0 | 0.0 | 0.00 | 0.00 | 0.00 | 87 | 1012.2 |
| 20260506180036 | 83 | 188 | 0.0 | 0.0 | 0.00 | 0.00 | 0.00 | 87 | 1012.3 |
| 20260506174536 | 82 | 279 | 2.0 | 0.0 | 0.00 | 0.00 | 0.00 | 87 | 1012.4 |
| 20260506173035 | 82 | 5 | 0.0 | 0.0 | 0.00 | 0.00 | 0.00 | 88 | 1012.5 |
| 20260506171535 | 81 | 163 | 0.0 | 0.0 | 0.00 | 0.00 | 0.00 | 88 | 1012.6 |
| 20260506170035 | 81 | 302 | 1.0 | 0.0 | 0.00 | 0.00 | 0.00 | 89 | 1012.8 |